Weather in Tofino

Canada     49°09′02″N   125°54′20″W
temp.,
°C
wind,
m/s
gust,
m/s
humid.,
%
clouds,
%
prec.,
mm/h
press.,
hPa
HPBL,
m
15 april, thu
thu1523:00+11ene22715 0.0 101911
02:00+11ne22662 0.0 101910
05:00+11ne22625 0.0 101910
08:00+11ne22621 0.0 101911
11:00+9ssw22660 0.0 102052
14:00+7ese01710 0.0 102158
17:00+9wsw01690 0.0 102061
20:00+11nne11680 0.0 102011
16 april, fri
fri1623:00+12n12670 0.0 102112
02:00+12ne12690 0.0 102111
05:00+12nne22690 0.0 102211
08:00+11ese11700 0.0 102212
11:00+9s11770 0.0 102341
14:00+8ese01840 0.0 102356
17:00+10e01740 0.0 102254
20:00+13nne12670 0.0 102112
17 april, sat
sat1723:00+13ne22670 0.0 102111
02:00+13ene22710 0.0 102111
05:00+12ne22710 0.0 102111
08:00+12e12690 0.0 102112
11:00+10sse11810 0.0 102230
14:00+9ene01850 0.0 102241
17:00+11ne01760 0.0 102140
20:00+13nne12700 0.0 102011
18 april, sun
sun1823:00+13ne226872 0.0 102111
02:00+12ene11715 0.0 102010
05:00+12e117445 0.0 102011
08:00+12ese11755 0.0 102012
11:00+9se228913 0.0 102155
14:00+8ese228522 0.0 102161
17:00+9e117718 0.0 102156
20:00+13n016945 0.0 102011
19 april, mon
mon1923:00+12se116964 0.0 102010
02:00+11ene117183 0.0 102110
05:00+11ese127591 0.0 102111
08:00+11sse117574 0.0 102113
11:00+8s3392100 0.0 102285
14:00+7sse1193100 0.0 102292
17:00+8wsw2291100 0.0 1021102
20:00+10nne2279100 0.0 102034